Location: Il Ritiro
(43.4167°N, 13.1333°E)
Time: 15:35:31
(UTC+00:00)

Cosmos 2221 - Pass Details

Date: 05 July 2020
Orbit: 592 x 617 km, 82.5° (Epoch: 10 August)

Event Time Altitude Azimuth Distance (km) Brightness Sun altitude
Rises 20:54:32 0° 357° (N) 2,894 7.1 -16.7°
Reaches altitude 10° 20:56:50 10° 3° (N) 1,982 6.0 -17.0°
Maximum altitude 21:01:04 47° 78° (ENE) 815 3.0 -17.4°
Enters shadow 21:02:30 34° 127° (SE) 1,013 3.1 -17.5°
